Wetbulb
73.19 75.36 77.60 77.67 77.55 77.25 77.22 77.39 77.27 77.47 77.00 77.02 76.85 77.00 77.14 76.91 76.70 76.81 77.18 77.08 77.13 77.05 77.00 76.84 76.68 76.59 76.32 76.21 75.93 75.96 75.25 75.63 76.02 75.86 75.86 76.14 76.42 76.41 76.04 76.03 75.65 72.93 74.25
75.00 76.43 78.08 78.01 77.35 76.96 76.90 77.21 77.26 77.42 77.28 77.00 77.08 77.18 77.00 76.86 76.75 77.15 77.12 77.07 76.90 76.70 76.40 76.32 76.26 76.15 75.90 75.79 75.52 75.27 75.52 75.33 75.45 76.11 76.24 76.33 76.20 76.51 76.08 75.63 75.91 75.19 75.78
74.11 75.30 76.82 77.89 77.65 77.40 77.49 77.53 77.63 76.94 76.46 76.99 77.43 76.69 76.76 77.19 76.84 76.87 76.83 76.45 76.27 76.24 75.91 76.26 76.13 75.90 75.79 75.08 74.83 74.80 75.05 74.69 73.75 73.73 74.60 74.73 74.70 75.93 76.19 76.27 75.93 75.49 75.19
74.18 74.46 75.24 77.94 78.29 76.94 77.25 77.27 77.66 77.03 76.59 77.05 76.41 76.66 76.58 76.83 76.79 76.76 76.75 75.97 75.74 75.69 75.66 75.52 75.22 75.00 74.94 74.89 75.02 75.36 74.98 75.19 75.81 74.54 72.70 71.18 71.14 75.94 75.77 76.34 76.05 75.91 75.81
73.87 74.27 75.78 77.58 76.92 76.91 77.35 77.21 77.57 77.49 76.84 76.66 76.84 76.48 76.46 76.83 76.64 76.16 75.94 75.74 75.80 75.74 75.66 75.30 74.71 74.74 74.49 74.60 75.66 76.14 75.20 75.83 72.03 69.89 69.55 70.88 70.22 75.69 76.07 76.44 76.02 75.84 75.65
74.30 75.84 76.67 77.25 77.21 76.38 77.02 77.12 77.20 77.07 77.31 77.30 76.29 76.43 76.48 76.18 75.88 76.56 76.07 75.71 75.38 75.16 75.08 75.11 75.24 75.17 75.01 75.97 77.36 77.21 76.15 72.05 70.95 70.49 71.29 71.39 69.63 75.76 76.42 76.45 75.87 75.72 76.25
73.45 74.81 75.93 77.20 76.89 77.34 75.67 76.88 76.90 76.41 76.08 75.74 75.72 76.73 76.18 76.43 76.17 76.14 75.35 75.08 74.78 74.55 74.75 74.69 74.68 75.21 75.49 76.33 77.42 77.23 75.17 72.50 69.39 69.35 68.15 69.46 69.65 74.90 75.93 76.93 76.74 74.68 74.77
73.38 74.58 75.13 76.53 77.17 77.57 75.94 77.41 77.58 77.38 76.53 76.02 76.32 76.47 76.27 75.87 75.40 75.24 75.13 75.05 74.66 74.72 75.00 74.91 75.05 75.38 75.80 76.55 77.49 76.28 75.22 72.68 69.89 69.53 68.20 68.88 70.35 71.97 75.44 75.89 76.20 75.34 74.50
73.64 73.36 73.44 72.55 75.69 77.02 76.01 76.77 77.07 77.14 76.92 76.76 76.47 76.31 75.59 74.94 74.63 75.14 76.37 76.18 75.36 75.77 76.26 76.27 75.99 76.60 76.74 77.18 77.66 76.51 74.55 72.50 70.05 69.66 69.46 69.72 70.42 71.57 75.10 75.70 75.92 75.77 75.54
72.56 72.45 69.62 70.49 73.83 73.96 75.36 77.63 77.22 76.31 75.87 75.68 75.27 75.00 75.38 74.88 74.77 75.74 76.33 76.77 76.77 76.83 77.30 77.31 76.96 77.55 77.54 76.15 73.42 75.19 72.03 73.66 71.02 70.16 70.27 68.92 72.18 73.78 75.73 76.15 76.34 76.56 76.65
70.94 69.52 69.54 70.75 73.41 73.70 73.95 75.29 77.01 75.77 75.97 76.30 76.00 75.75 75.19 73.94 74.26 72.55 74.31 76.86 76.69 77.42 77.25 76.58 75.81 77.06 75.09 74.45 73.28 74.39 71.77 69.08 68.37 70.91 69.78 70.26 72.74 74.78 76.94 76.28 76.47 76.72 76.47
70.18 69.97 70.02 71.91 73.42 73.64 74.09 72.20 72.21 73.77 73.50 73.78 74.55 73.76 72.92 72.41 71.10 74.76 75.66 78.54 77.59 77.94 77.16 74.61 71.94 75.84 72.51 72.93 71.67 75.09 71.29 69.07 70.82 72.82 69.44 71.73 73.38 76.15 76.40 76.42 76.30 76.66 76.35
69.95 71.75 69.11 69.30 72.33 72.34 69.47 70.73 71.84 73.12 73.33 73.71 72.93 71.99 72.56 73.00 71.74 72.69 74.12 74.53 72.92 77.57 74.29 72.19 72.42 75.09 69.75 71.69 72.79 72.90 72.35 70.62 71.30 72.40 71.24 73.71 74.87 76.76 76.69 76.32 76.73 76.58 76.55
70.36 71.28 68.96 69.05 69.22 69.90 72.06 74.15 72.77 72.49 71.80 72.90 73.14 71.52 72.85 74.08 73.46 74.12 73.06 72.24 72.86 74.34 73.59 71.02 72.08 73.43 71.17 71.53 72.38 72.58 71.98 71.45 72.30 71.01 73.39 76.91 76.77 77.41 77.12 77.05 76.85 76.40 76.14
69.85 71.60 68.37 71.47 70.28 72.09 74.04 72.50 72.43 72.65 72.48 72.02 72.23 74.89 74.60 71.74 70.10 71.22 72.59 73.80 70.85 71.98 73.06 72.72 71.87 72.52 72.17 72.84 72.32 71.33 70.12 71.93 72.74 72.57 74.34 77.05 76.78 76.28 76.99 76.22 75.77 75.59 75.77
69.74 69.89 70.09 71.58 73.00 73.66 73.76 73.07 71.51 72.45 72.07 70.11 72.25 73.72 74.13 70.11 70.83 72.26 72.64 74.34 73.52 74.20 73.54 72.17 71.58 73.20 71.78 71.03 69.20 67.45 68.26 70.87 72.40 73.02 74.34 74.89 76.68 76.76 76.59 75.46 74.71 75.03 74.53
69.33 69.58 70.06 71.17 73.57 73.44 73.53 73.51 72.54 74.90 73.16 72.11 74.09 74.12 74.76 72.81 72.30 73.58 72.60 71.20 73.19 75.09 75.01 74.43 73.51 73.47 72.01 72.13 70.67 69.67 69.83 71.44 72.52 72.98 73.17 73.35 75.14 76.14 76.01 75.72 75.58 75.09 73.59
68.92 69.03 70.01 72.78 73.39 73.66 72.47 73.68 75.40 71.58 74.42 74.30 73.99 74.13 73.80 74.91 72.23 71.78 72.83 73.09 75.53 75.16 73.76 73.29 73.00 72.50 72.22 71.02 70.90 69.64 69.43 69.97 71.22 70.66 72.47 72.73 71.32 72.03 74.06 74.78 74.48 74.36 72.73
68.63 68.67 68.44 71.08 72.46 73.84 73.93 73.21 73.70 73.17 70.88 74.41 73.82 73.84 74.36 73.82 71.43 72.82 73.36 74.81 75.38 74.74 73.87 73.52 73.19 72.35 71.38 71.38 70.01 69.96 69.35 71.22 71.19 71.42 72.43 71.91 71.27 69.40 69.04 74.14 74.10 73.84 71.93
68.88 68.53 68.47 72.80 72.93 72.63 72.69 73.99 73.52 71.34 71.88 73.47 73.10 72.58 73.07 73.70 74.42 73.54 74.96 74.97 74.86 74.24 72.95 73.91 71.70 72.70 72.60 70.67 71.26 66.72 68.32 68.02 68.50 67.98 69.10 68.09 67.34 66.05 64.66 65.14 67.88 71.34 72.08
69.62 68.28 69.78 74.06 73.55 72.75 71.92 71.81 71.82 70.27 70.88 72.50 72.22 72.73 73.59 73.17 72.92 73.24 74.26 75.34 74.91 73.89 71.78 74.03 72.22 71.19 71.49 71.63 66.83 63.24 64.66 63.90 64.31 64.73 65.26 66.04 64.87 64.78 64.12 61.94 61.70 67.40 69.81
69.40 69.22 70.85 73.08 73.27 72.65 71.96 71.93 72.85 73.89 72.66 72.70 72.32 71.67 73.12 73.12 72.65 72.98 73.98 74.22 74.76 73.95 72.97 73.18 73.19 71.29 70.18 70.31 63.30 60.84 59.65 60.65 61.28 63.81 63.47 62.78 60.85 61.81 61.88 63.60 62.55 63.55 63.35
69.16 69.66 71.36 72.79 72.90 73.77 73.26 73.25 73.04 73.44 72.54 69.37 69.96 70.80 71.67 72.43 72.73 73.41 73.87 74.18 74.16 73.88 72.71 73.85 72.54 71.47 68.86 66.85 64.04 61.52 56.20 55.63 57.32 60.65 60.14 60.30 59.53 59.91 59.69 62.15 61.54 63.81 62.68
70.18 70.40 71.96 73.24 73.64 73.81 73.99 72.62 71.12 70.63 68.35 68.66 69.10 71.60 72.65 72.52 72.61 73.45 73.74 74.11 74.46 73.74 73.97 73.44 73.48 71.26 67.46 63.42 62.24 63.93 61.35 60.03 56.19 52.44 55.57 58.21 59.54 61.07 59.52 60.42 61.98 62.24 60.69
70.98 70.52 71.45 73.24 73.81 72.60 73.34 73.16 72.27 70.35 71.09 71.44 72.43 72.02 71.31 72.02 73.52 73.92 73.90 73.90 73.84 74.65 74.49 73.37 72.35 69.66 68.32 64.32 62.74 62.54 57.94 57.31 56.09 53.94 51.96 54.44 56.73 57.78 60.25 59.49 60.32 60.72 60.51
71.72 70.94 70.93 72.31 73.42 72.55 72.72 73.43 72.87 70.85 70.75 70.45 71.14 71.22 70.82 71.81 73.19 74.43 74.67 74.17 73.66 75.08 74.53 72.89 71.92 68.28 66.71 64.63 62.07 59.44 57.58 54.96 54.41 54.55 52.58 53.63 53.25 56.16 58.99 58.98 59.05 59.47 59.39
MSLP
1014.41 1014.27 1014.22 1014.13 1014.25 1014.50 1014.62 1014.62 1014.62 1014.64 1014.67 1014.78 1014.93 1014.97 1014.96 1014.96 1015.05 1015.05 1015.15 1015.17 1015.31 1015.48 1015.53 1015.55 1015.64 1015.86 1016.04 1016.16 1016.23 1016.37 1016.65 1016.72 1016.65 1016.76 1016.93 1016.74 1016.75 1016.81 1016.88 1016.85 1016.78 1016.94 1017.01
1013.93 1014.16 1014.24 1014.28 1014.40 1014.58 1014.70 1014.79 1014.86 1014.94 1015.00 1015.04 1015.15 1015.18 1015.22 1015.30 1015.38 1015.29 1015.43 1015.51 1015.59 1015.62 1015.70 1015.83 1015.96 1016.08 1016.12 1016.09 1016.18 1016.36 1016.59 1016.90 1017.01 1016.94 1016.92 1016.90 1017.01 1017.11 1016.95 1016.91 1016.73 1016.86 1016.97
1013.94 1014.13 1014.24 1014.39 1014.50 1014.65 1014.85 1015.00 1015.01 1015.13 1015.26 1015.33 1015.40 1015.46 1015.46 1015.53 1015.57 1015.68 1015.73 1015.76 1015.73 1015.74 1015.84 1015.95 1016.11 1016.23 1016.27 1016.28 1016.37 1016.45 1016.74 1017.06 1017.16 1017.29 1017.36 1017.23 1017.46 1017.47 1017.16 1017.00 1017.19 1017.13 1017.18
1013.68 1014.04 1014.29 1014.45 1014.67 1014.90 1015.19 1015.26 1015.30 1015.43 1015.54 1015.61 1015.75 1015.86 1015.86 1015.98 1015.98 1015.94 1015.99 1015.98 1015.92 1015.98 1016.08 1016.12 1016.20 1016.29 1016.44 1016.49 1016.56 1016.66 1016.92 1017.12 1017.48 1017.81 1017.87 1018.07 1017.78 1017.50 1017.34 1016.85 1017.18 1017.12 1017.26
1013.79 1014.10 1014.36 1014.61 1014.88 1015.20 1015.36 1015.47 1015.53 1015.58 1015.73 1015.84 1015.88 1015.91 1015.98 1016.06 1016.10 1016.16 1016.17 1016.24 1016.27 1016.23 1016.20 1016.24 1016.33 1016.36 1016.55 1016.65 1016.70 1016.72 1017.09 1017.40 1018.30 1018.68 1018.67 1017.11 1018.00 1017.54 1017.70 1017.24 1017.22 1017.32 1017.29
1013.85 1014.15 1014.55 1014.81 1015.02 1015.31 1015.54 1015.64 1015.65 1015.77 1015.78 1015.84 1015.88 1016.03 1016.18 1016.17 1016.13 1016.06 1016.06 1016.20 1016.27 1016.34 1016.42 1016.40 1016.37 1016.38 1016.44 1016.46 1016.44 1016.44 1016.96 1017.64 1018.34 1018.24 1018.37 1018.15 1017.97 1017.52 1017.38 1017.32 1017.27 1017.38 1017.37
1014.11 1014.29 1014.73 1014.98 1015.21 1015.39 1015.68 1015.74 1015.82 1015.82 1015.87 1016.03 1016.02 1015.98 1015.96 1016.07 1016.22 1016.24 1016.15 1016.07 1016.14 1016.26 1016.27 1016.18 1016.14 1016.18 1016.22 1016.18 1016.22 1016.32 1017.35 1017.70 1017.36 1017.27 1017.54 1017.68 1017.83 1017.52 1017.39 1017.05 1016.90 1017.15 1017.46
1014.03 1014.42 1014.81 1015.12 1015.42 1015.46 1015.74 1015.87 1015.80 1015.90 1015.96 1015.94 1015.98 1015.95 1016.07 1016.34 1016.63 1016.63 1016.36 1016.22 1016.00 1015.97 1015.97 1016.02 1016.08 1016.10 1016.06 1016.08 1016.46 1017.05 1017.58 1017.76 1017.20 1017.05 1016.87 1017.32 1017.74 1017.47 1017.26 1016.96 1016.79 1016.90 1017.17
1014.00 1014.42 1014.97 1015.28 1015.48 1015.49 1015.80 1015.86 1015.94 1015.94 1015.94 1015.88 1015.86 1016.05 1016.31 1016.38 1016.18 1016.26 1016.54 1016.39 1015.95 1015.71 1015.70 1015.70 1015.95 1015.99 1016.06 1016.08 1016.21 1017.17 1017.58 1017.43 1017.19 1017.00 1016.70 1016.98 1017.45 1017.05 1017.03 1016.93 1016.87 1016.98 1017.04
1014.27 1014.40 1014.98 1015.44 1015.45 1015.64 1015.82 1015.87 1015.94 1015.88 1016.00 1015.98 1016.36 1017.24 1017.03 1016.41 1016.49 1016.60 1016.28 1016.24 1015.92 1015.92 1015.65 1015.76 1015.93 1015.98 1015.90 1016.02 1016.58 1017.78 1018.38 1017.15 1017.66 1017.42 1017.82 1017.70 1016.60 1016.77 1016.99 1016.96 1016.97 1016.90 1017.02
1014.18 1014.48 1014.90 1015.32 1015.44 1015.69 1015.81 1015.92 1016.04 1015.99 1015.80 1016.03 1016.79 1017.45 1016.80 1016.94 1016.41 1015.83 1016.10 1016.16 1015.88 1015.66 1015.27 1015.49 1015.43 1015.49 1015.86 1015.85 1016.58 1016.49 1016.26 1016.14 1017.14 1017.24 1017.46 1017.29 1016.88 1016.81 1016.68 1016.92 1016.92 1016.89 1016.98
1014.18 1014.52 1014.88 1014.94 1015.29 1015.55 1015.44 1015.91 1016.30 1016.31 1016.01 1016.24 1016.46 1016.86 1017.40 1016.57 1016.43 1016.07 1016.12 1015.78 1015.77 1015.27 1015.02 1014.99 1015.26 1015.21 1015.30 1015.53 1015.46 1016.55 1017.14 1016.85 1016.48 1016.34 1016.59 1016.85 1016.75 1016.80 1016.87 1016.72 1016.79 1016.92 1016.94
1013.82 1014.22 1014.62 1014.77 1014.98 1015.25 1015.17 1015.75 1016.34 1016.54 1016.14 1016.36 1016.61 1016.61 1016.38 1016.28 1016.46 1016.33 1016.01 1015.96 1015.70 1015.20 1014.88 1014.80 1015.00 1014.93 1015.02 1015.10 1015.09 1016.64 1016.74 1016.70 1017.19 1016.29 1016.03 1016.19 1016.40 1016.42 1016.60 1016.70 1016.78 1016.80 1016.72
1013.68 1013.81 1014.26 1014.45 1014.92 1015.04 1015.20 1015.38 1016.00 1016.60 1016.57 1016.49 1016.05 1015.94 1016.18 1016.14 1016.16 1016.13 1015.65 1015.76 1015.28 1014.94 1014.99 1014.90 1014.74 1014.76 1015.00 1015.20 1015.03 1015.87 1015.81 1016.08 1016.50 1015.72 1015.69 1016.08 1016.14 1016.32 1016.38 1016.55 1016.60 1016.58 1016.54
1013.27 1013.54 1014.19 1014.48 1014.96 1015.32 1015.11 1015.64 1015.92 1016.39 1016.43 1015.96 1016.05 1015.91 1015.86 1016.34 1016.87 1016.61 1016.06 1015.60 1015.18 1015.00 1014.85 1014.68 1014.42 1014.40 1014.66 1014.34 1014.13 1014.37 1014.86 1014.78 1014.92 1015.24 1015.53 1015.80 1016.31 1016.40 1016.41 1016.45 1016.49 1016.45 1016.50
1012.85 1013.52 1014.02 1014.38 1014.87 1014.92 1015.50 1015.48 1015.58 1016.08 1016.20 1016.22 1016.04 1015.95 1016.33 1015.78 1015.96 1016.34 1016.28 1015.60 1015.33 1015.21 1014.81 1014.80 1014.91 1014.34 1014.48 1014.04 1014.09 1013.59 1013.94 1014.16 1014.40 1014.80 1015.44 1015.91 1016.08 1016.27 1016.17 1016.44 1016.50 1016.61 1016.72
1012.78 1013.42 1014.00 1014.42 1014.70 1015.24 1015.47 1015.32 1015.44 1015.99 1016.22 1016.23 1015.94 1015.84 1015.86 1016.05 1015.82 1016.04 1016.18 1015.82 1015.43 1015.24 1014.95 1014.83 1014.88 1014.84 1015.08 1014.66 1014.40 1013.79 1013.88 1013.86 1014.21 1014.68 1015.30 1015.64 1016.13 1016.33 1016.29 1016.42 1016.52 1016.58 1016.74
1012.72 1013.42 1013.95 1014.49 1015.05 1015.28 1015.39 1015.34 1015.24 1015.49 1015.95 1016.12 1015.88 1015.87 1015.85 1016.06 1016.09 1016.26 1016.19 1015.85 1015.35 1015.36 1015.12 1015.17 1015.16 1015.08 1014.99 1014.90 1014.64 1014.43 1014.49 1014.44 1014.67 1014.62 1015.35 1015.76 1016.07 1016.32 1016.41 1016.43 1016.52 1016.57 1016.59
1012.51 1013.30 1013.86 1014.51 1015.08 1015.30 1015.29 1015.20 1015.20 1015.04 1015.55 1015.92 1015.78 1015.93 1015.84 1015.87 1015.76 1016.12 1015.90 1015.73 1015.53 1015.58 1015.57 1015.59 1015.58 1015.53 1015.47 1015.17 1014.80 1014.51 1014.21 1014.35 1014.58 1014.75 1015.07 1015.53 1016.00 1016.09 1016.26 1016.29 1016.43 1016.45 1016.63
1012.42 1013.03 1013.68 1014.51 1014.96 1015.33 1015.51 1015.46 1015.48 1015.22 1015.24 1015.73 1015.72 1015.78 1015.78 1015.93 1015.81 1015.83 1015.74 1015.75 1015.66 1015.88 1015.92 1015.97 1015.94 1015.66 1015.53 1015.35 1015.07 1014.89 1014.77 1015.06 1015.06 1015.08 1015.40 1015.46 1015.82 1015.99 1016.37 1016.38 1016.53 1016.65 1016.92
1012.46 1013.14 1013.70 1014.45 1014.91 1015.28 1015.69 1015.82 1015.75 1015.68 1015.45 1015.95 1015.66 1015.53 1015.62 1015.72 1015.75 1015.87 1015.88 1015.87 1015.90 1016.15 1016.22 1016.19 1016.14 1016.19 1015.95 1015.56 1015.60 1015.55 1015.54 1015.41 1015.55 1015.96 1015.58 1015.74 1015.88 1016.20 1016.04 1016.15 1016.36 1016.62 1016.88
1012.22 1012.93 1013.63 1014.25 1014.70 1015.16 1015.53 1015.66 1015.75 1015.61 1015.76 1015.65 1015.62 1015.60 1015.61 1015.74 1015.74 1015.69 1015.92 1016.20 1016.22 1016.21 1016.31 1016.34 1016.33 1016.49 1016.45 1016.11 1016.29 1016.57 1016.74 1016.46 1016.40 1016.38 1016.46 1016.40 1016.27 1016.10 1016.18 1016.26 1016.35 1016.69 1017.04
1011.80 1012.55 1013.37 1014.07 1014.53 1014.98 1015.27 1015.62 1015.80 1015.67 1015.71 1015.99 1015.95 1015.94 1015.76 1015.67 1015.63 1015.68 1015.81 1015.95 1016.28 1016.37 1016.62 1016.60 1016.64 1016.78 1017.06 1016.79 1016.59 1016.96 1017.46 1017.94 1017.66 1017.16 1016.94 1016.83 1016.67 1016.42 1016.26 1016.29 1016.56 1016.78 1016.92
1011.37 1012.13 1012.91 1013.72 1014.27 1014.67 1015.04 1015.44 1015.77 1015.92 1016.06 1015.88 1015.80 1015.86 1015.86 1015.62 1015.61 1015.67 1015.74 1015.89 1015.98 1016.27 1016.48 1016.60 1016.76 1017.11 1017.24 1017.69 1017.24 1017.23 1017.52 1017.77 1018.27 1018.41 1017.47 1017.41 1017.02 1016.96 1016.72 1016.41 1016.52 1016.77 1016.98
1010.88 1011.64 1012.38 1013.22 1013.92 1014.34 1014.72 1015.20 1015.52 1015.85 1015.90 1015.70 1015.69 1015.87 1015.94 1015.71 1015.52 1015.60 1015.81 1015.85 1016.13 1016.37 1016.59 1016.84 1017.11 1017.44 1017.65 1018.06 1018.31 1018.27 1018.10 1018.28 1018.34 1018.75 1018.92 1018.33 1017.58 1016.94 1017.14 1016.99 1016.76 1016.95 1017.00
1010.27 1011.24 1012.02 1012.79 1013.44 1013.99 1014.49 1014.92 1015.28 1015.53 1015.76 1016.00 1016.03 1015.97 1015.78 1015.73 1015.68 1015.62 1015.67 1015.80 1015.90 1016.44 1016.71 1016.93 1017.25 1017.58 1017.98 1018.31 1018.51 1018.58 1018.66 1018.82 1019.03 1019.16 1019.36 1019.06 1018.75 1017.82 1017.42 1017.31 1017.26 1017.26 1017.30
Wind_Speed
5 6 11 13 12 11 11 11 11 12 12 12 11 11 11 11 12 12 12 12 11 11 11 11 10 10 9 8 7 8 10 9 10 10 14 14 13 11 10 9 10 8 8
11 7 12 12 13 12 10 11 11 11 11 11 10 10 11 11 10 12 11 11 11 10 10 10 9 8 7 6 5 5 5 6 7 8 9 10 12 11 10 8 9 9 9
12 8 9 11 12 12 11 11 11 11 9 9 10 10 11 10 11 10 10 10 9 9 8 8 8 7 6 4 3 1 2 3 2 1 3 1 3 8 9 9 10 10 9
12 8 7 11 11 11 11 10 10 10 10 10 10 9 10 9 9 10 10 8 8 8 7 6 5 4 3 2 2 3 4 6 9 16 9 8 8 8 8 11 9 9 8
12 10 8 11 11 13 11 10 10 10 10 10 9 9 9 9 7 8 8 6 6 5 4 4 3 2 2 2 3 4 5 11 18 13 9 12 10 9 11 11 11 10 10
13 10 11 13 12 12 10 11 10 10 10 9 9 9 8 6 6 6 6 4 3 2 1 1 2 2 2 3 4 4 8 18 13 7 8 2 8 9 12 12 12 9 9
10 9 8 11 11 11 11 10 10 8 8 8 8 7 7 5 3 3 3 3 1 1 3 3 3 4 5 6 5 5 15 18 8 7 7 3 6 6 9 7 10 8 7
13 10 7 11 11 10 11 10 9 9 9 7 6 6 5 3 1 3 4 5 4 5 7 5 5 6 6 8 10 12 17 18 11 8 9 5 10 7 8 9 9 10 9
11 10 7 7 9 12 11 9 8 8 7 6 5 4 1 0 3 5 9 9 8 9 9 8 4 6 6 8 9 17 19 20 8 5 10 6 15 9 10 8 7 8 9
10 10 8 6 6 6 6 9 8 7 6 6 4 2 2 3 6 9 12 13 12 9 10 7 5 7 5 5 7 32 23 14 8 7 3 6 14 11 11 10 10 10 9
7 9 8 7 6 6 6 6 6 6 8 7 5 12 11 1 7 11 14 18 10 6 5 3 3 3 2 1 10 20 19 7 7 7 6 17 14 12 14 12 10 8 9
7 7 7 9 8 7 7 6 5 3 4 3 0 3 5 5 5 10 12 11 9 8 8 6 2 3 2 2 4 11 2 5 3 1 4 14 14 12 9 8 6 6 9
8 7 8 8 9 8 6 4 3 3 1 2 2 2 4 4 4 2 3 3 3 7 4 5 1 2 3 3 3 8 11 6 6 3 5 12 13 12 10 7 6 5 6
10 9 9 8 7 6 3 4 5 4 1 1 3 2 1 2 1 4 2 4 4 3 4 5 3 5 7 2 6 8 10 7 6 5 7 12 11 11 11 8 6 4 1
15 11 8 8 6 5 6 4 4 5 3 4 2 3 4 7 6 4 4 3 3 3 2 4 3 2 4 7 6 4 7 7 11 5 4 14 8 8 10 9 7 7 7
13 14 8 9 7 6 4 4 5 3 4 1 2 3 8 2 2 3 5 2 3 4 3 3 5 5 6 5 2 3 4 3 6 9 5 7 12 11 11 10 9 8 8
14 13 9 8 7 6 2 3 2 4 5 3 3 3 6 6 4 4 4 3 3 4 5 3 3 3 3 2 4 5 3 4 6 10 8 6 7 10 11 10 10 11 10
15 14 10 8 7 6 4 1 2 3 4 4 3 3 6 5 3 2 4 3 4 4 4 4 4 4 3 4 4 4 3 3 3 8 6 6 5 4 6 9 9 10 12
16 14 10 9 9 7 4 2 1 3 3 4 3 4 4 3 2 1 3 4 4 3 4 4 4 3 4 4 4 3 4 3 5 5 9 7 6 5 4 7 11 12 11
13 13 9 9 9 8 4 2 1 1 3 4 4 4 5 3 2 5 4 3 5 4 4 3 4 4 2 3 4 7 7 4 3 4 5 7 5 6 5 5 5 6 11
13 8 9 9 9 7 2 1 1 2 3 3 3 5 4 3 4 4 3 5 5 4 3 4 3 4 4 5 4 4 3 7 8 5 3 4 4 6 6 5 4 4 4
15 10 9 12 8 7 4 3 1 2 0 3 3 4 3 4 1 2 4 4 5 4 5 4 5 3 3 5 2 3 5 6 5 6 4 3 4 4 4 6 6 6 5
16 14 10 11 9 7 7 3 1 2 3 2 1 2 2 4 2 1 3 3 3 4 3 5 5 7 3 4 7 4 4 1 3 3 5 5 4 2 3 5 6 6 6
17 15 12 10 10 7 7 3 5 3 3 3 3 3 4 5 3 0 3 3 3 4 5 4 4 4 4 4 4 4 5 3 2 4 4 4 4 3 3 3 6 6 5
17 16 15 12 10 7 6 5 5 4 3 1 3 6 5 4 4 3 4 3 2 3 4 6 6 6 4 3 3 3 4 4 3 3 2 5 5 4 4 3 5 4 5
19 17 16 14 12 8 8 7 6 8 5 1 2 4 3 2 4 3 4 4 3 5 5 4 6 7 5 5 3 4 2 2 1 3 1 3 2 5 2 2 4 4 4
Wind_Direction
117 115 109 107 103 100 98 100 96 87 83 84 79 79 80 82 87 91 91 95 96 96 101 103 104 96 93 97 102 111 122 126 127 134 144 148 148 151 158 164 161 125 127
118 113 114 110 109 109 115 109 95 92 91 93 88 86 81 78 79 87 98 98 98 99 93 94 94 91 93 99 98 107 116 109 133 145 150 154 155 161 161 171 185 143 136
115 118 103 112 111 112 105 97 102 98 96 98 95 93 98 99 98 91 93 88 92 92 95 94 91 94 93 88 79 12 56 81 97 83 128 120 179 173 155 148 143 141 139
129 115 108 106 110 106 96 101 98 103 100 96 95 96 92 90 92 88 84 86 89 89 91 87 80 76 88 80 354 322 5 34 42 51 22 337 295 194 176 149 151 149 146
110 114 118 119 116 109 108 107 103 104 108 101 103 104 102 93 97 94 90 84 81 88 91 91 89 59 357 334 316 308 4 55 70 93 149 298 285 199 190 161 161 168 165
117 120 120 124 117 118 115 112 109 110 109 115 120 112 98 108 108 111 114 109 103 96 70 49 356 348 315 303 302 313 59 60 89 99 140 275 347 188 182 169 167 165 182
119 118 122 118 124 121 119 116 117 125 127 125 126 123 138 142 143 132 157 160 173 265 268 268 279 293 292 287 285 305 75 72 69 61 329 334 301 271 193 169 151 160 170
131 120 129 127 131 128 124 125 124 138 136 146 149 157 161 145 30 298 260 242 227 248 254 254 264 284 295 312 331 3 65 108 114 135 215 227 255 299 214 177 169 167 166
136 126 134 133 143 134 133 138 136 144 153 167 171 180 196 127 259 278 292 271 249 242 250 253 269 289 316 323 350 42 109 141 130 175 215 237 262 270 233 188 178 180 177
146 136 148 147 153 139 142 153 160 175 183 199 202 35 261 113 297 300 286 260 256 272 260 268 331 328 336 35 42 79 84 270 193 186 207 233 215 221 233 196 192 189 194
138 150 147 161 172 157 154 176 178 197 210 201 176 84 299 151 156 261 265 262 233 265 274 246 195 311 96 124 60 128 157 210 201 181 184 226 224 220 204 197 195 199 198
156 165 163 176 166 167 174 156 150 221 268 252 302 242 157 176 174 230 244 235 218 238 247 234 235 197 240 171 177 131 123 246 270 200 180 228 214 229 205 193 197 211 218
182 173 165 157 168 191 165 151 141 177 147 326 137 202 184 192 178 234 259 270 245 223 249 286 56 196 194 214 274 112 208 220 234 197 215 223 213 191 183 179 195 212 225
184 173 167 161 156 185 127 148 144 103 75 255 289 294 324 104 349 317 246 243 283 193 206 263 265 219 200 262 223 163 197 194 198 198 202 188 183 168 157 152 136 122 180
183 161 153 119 134 116 103 106 127 132 198 164 175 337 50 32 34 324 332 300 6 56 182 239 283 346 229 224 217 265 115 148 172 152 144 165 160 140 134 132 118 95 82
123 122 124 109 102 86 92 157 130 138 187 188 134 89 87 155 87 337 320 305 20 4 305 333 330 325 4 343 110 1 44 85 143 130 145 152 150 150 132 127 119 100 76
131 128 121 123 116 113 188 158 170 150 187 192 157 125 110 128 219 335 321 3 330 11 351 54 40 17 308 4 314 302 34 66 124 145 147 144 145 143 139 144 135 122 99
131 132 138 142 139 159 193 187 262 165 132 172 158 138 99 119 94 13 328 335 14 19 30 30 11 357 0 7 334 284 310 64 188 129 132 135 145 128 140 143 133 115 96
139 143 149 148 154 167 178 227 323 214 127 145 161 109 111 111 38 352 346 313 22 64 37 13 359 23 360 346 347 357 289 135 215 89 137 141 136 159 163 168 145 129 115
143 153 141 150 147 147 165 263 292 305 312 123 142 130 108 103 28 7 350 353 23 62 27 22 16 349 320 333 5 13 51 68 94 94 116 120 147 152 136 123 132 120 116
148 152 148 142 148 142 160 228 252 216 262 116 140 128 108 79 16 9 25 32 24 54 34 31 7 13 343 343 17 6 22 45 35 44 84 86 95 107 124 93 100 120 133
155 161 147 150 148 153 166 199 138 227 152 134 135 118 133 111 324 16 23 40 22 5 35 40 33 4 352 5 41 75 12 348 7 28 50 51 87 100 102 101 91 111 120
159 165 157 158 162 163 183 154 96 16 54 77 116 136 186 172 229 211 63 49 24 42 63 69 48 33 13 348 40 115 34 334 338 340 30 15 31 82 87 116 95 106 98
167 168 160 155 168 178 177 162 155 172 166 222 170 182 204 210 198 272 130 75 29 33 68 73 61 54 57 26 349 24 69 136 98 338 342 4 358 9 295 114 92 107 91
170 169 171 160 164 176 180 187 182 179 211 280 142 151 199 221 203 231 150 115 89 70 88 79 71 56 49 65 44 340 18 43 61 105 312 329 338 348 32 103 113 102 101
169 170 173 168 169 172 179 192 192 186 209 285 181 177 227 238 226 222 163 171 133 110 101 96 98 88 76 59 50 35 65 108 1 54 5 317 308 319 44 50 84 87 63